Regional Weather Roundup
Issued by NWS Wakefield, VA

Home | Current Version | Previous Version | Graphics & Text | Print | Product List | Glossary On
Versions: 1 2 3 4 5 6 7 8 9 10 11 12 13 14 15 16 17 18 19 20 21 22 23 24 25 26 27 28 29 30 31 32 33 34 35 36 37 38 39 40 41 42 43 44 45 46 47 48 49 50
000
ASUS41 KAKQ 240315
RWRAKQ

REGIONAL WEATHER ROUNDUP
NATIONAL WEATHER SERVICE WAKEFIELD VA
1100 PM EDT SAT MAY 23 2015

Note: "fair" indicates few or no clouds below 12,000 feet with no
significant weather and/or obstructions to visibility. * = Denotes
station may not report precipitation (e.g., rain,snow,etc.),
thunder or fog.

VAZ042-051-052>054-056-240400-
NORTHERN VIRGINIA

CITY           SKY/WX    TMP DP  RH WIND       PRES   REMARKS
WASH NATIONAL  CLEAR     64  46  52 S9        30.39R
DULLES         CLEAR     60  42  51 S6        30.38R
FORT BELVOIR   CLEAR     55  48  77 NW2       30.39R
QUANTICO       CLEAR     64  48  56 S10       30.40R
FREDERICKSBRG* CLEAR     62  51  67 SE3       30.38S
STAFFORD*      CLEAR     53  48  83 CALM      30.43S
WARRENTON      CLEAR     53  50  89 CALM      30.38R
CULPEPER*      MOCLDY    52  47  84 CALM      30.39S
MANASSAS*        N/A    N/A N/A N/A MISG        N/A
LEESBURG*      CLEAR     59  46  63 S5        30.39S
WINCHESTER     CLEAR     59  41  51 CALM      30.37R
FRONT ROYAL*   FAIR      55  48  76 CALM      30.36S
LURAY*         FAIR      57  52  82 CALM      30.38R
$$

VAZ048-049-060>072-079>083-240400-
CENTRAL AND SOUTH CENTRAL VIRGINIA

CITY           SKY/WX    TMP DP  RH WIND       PRES   REMARKS
RICHMOND       PTCLDY    60  49  66 SE8       30.40R
CHESTERFIELD*  NOT AVBL
PETERSBURG*    CLEAR     61  50  66 SE3       30.40R
HANOVER        MOCLDY    59  49  69 CALM      30.41R
TAPPAHANNOCK*  CLEAR     58  40  51 CALM      30.41S
QUINTON*       FAIR      59  49  69 E7        30.41R
CHARLOTTSVILLE CLEAR     57  48  72 N3        30.38R
GORDONSVILLE*  FAIR      54  51  89 CALM      30.38S
ORANGE*        PTCLDY    55  52  88 CALM      30.39S
LOUISA*        CLEAR     57  48  72 SE3       30.37S
BUMPASS*       MOCLDY    60  49  65 E9        30.38S
FARMVILLE*     CLEAR     59  52  79 CALM      30.36S
CREWE*         FAIR      55  53  92 CALM      30.38S
FORT PICKETT*  FAIR      57  52  82 CALM      30.39R
CHASE CITY*    FAIR      59  54  84 CALM      30.38S
CLARKSVILLE*   FAIR      59  54  82 CALM      30.38R
SOUTH HILL*    CLEAR     55  52  88 CALM      30.45R
LAWRENCEVILLE* FAIR      61  52  72 CALM      30.39R
EMPORIA*       CLEAR     57  52  82 E5        30.42R
$$

VAZ088>098-240400-
SOUTHEAST VIRGINIA

CITY           SKY/WX    TMP DP  RH WIND       PRES   REMARKS
NORFOLK        CLEAR     59  45  59 CALM      30.42S
VIRGINIA BEACH PTCLDY    58  47  66 S3        30.42S
NORFOLK NAVAL  PTCLDY    64  46  52 SE6       30.44R
WEST POINT*    CLEAR     59  49  69 E5        30.42S
SALUDA*        FAIR      58  52  79 S10G18    30.41R
NEWPORT NEWS   CLEAR     59  50  72 CALM      30.42R
LANGLEY AFB    CLEAR     60  49  67 S5        30.41S
FORT EUSTIS    CLEAR     61  51  69 SE6       30.40R
WILLIAMSBURG*  CLEAR     61  55  82 S6        30.42S
HR EXEC AP*    FAIR      52  45  76 CALM      30.44S
FRANKLIN*      CLEAR     60  49  68 SE3       30.42R
WAKEFIELD      CLEAR     60  50  69 VRB3      30.41R
$$

VAZ020-022-025-037-045-240400-
WEST CENTRAL AND SOUTHWEST VIRGINIA

CITY           SKY/WX    TMP DP  RH WIND       PRES   REMARKS
STAUNTON*      CLEAR     55  50  83 CALM      30.40R
WAYNESBORO*    FAIR      57  48  73 CALM      30.39R
HOT SPRINGS VA CLEAR     56  46  68 S5        30.43R
LYNCHBURG      CLEAR     57  49  74 CALM      30.39R
DANVILLE       CLEAR     60  52  74 NE3       30.37S
SOUTH BOSTON*  FAIR      58  53  84 CALM      30.37S
MARTINSVILLE   CLEAR     55  54  96 CALM      30.40R
ROANOKE        CLEAR     65  49  56 SE5       30.40R
BLACKSBURG     CLEAR     55  48  77 CALM      30.44R
DUBLIN*        CLEAR     60  49  66 CALM      30.42R
MARION*        CLEAR     60  43  52 CALM      30.42S
HILLSVILLE*    CLEAR     61  46  57 S3        30.42R
RICHLANDS*     FAIR      63  44  50 SE6       30.39R
WISE*          MOCLDY    61  41  48 CALM      30.39R
ABINGDON*      CLEAR     62  47  56 CALM      30.37R
$$

MDZ021>025-VAZ099-100-240400-
SOUTHERN MARYLAND AND THE DELMARVA PENINSULA

CITY           SKY/WX    TMP DP  RH WIND       PRES   REMARKS
PATUXENT RIVER CLEAR     56  43  61 S6        30.40R
BAY BRIDGE APT   N/A    N/A N/A N/A S5        30.39F
LEONARDTOWN    CLEAR     55  41  58 CALM      30.42S
DOVER          CLEAR     54  50  88 S7        30.37R
GEORGETOWN     CLEAR     52  47  83 S5        30.42R
EASTON         CLEAR     60  43  52 CALM      30.44R
CAMBRIDGE      CLEAR     52  46  82 SE3       30.41R
SALISBURY      CLEAR     50  47  89 CALM      30.42R
OCEAN CITY     CLEAR     57  49  74 VRB6      30.42R
WALLOPS ISLAND CLEAR     57  50  77 S9        30.43R
ACCOMACK*      CLEAR     54  50  87 S5        30.42S
$$

NCZ012>017-030>032-240400-
NORTH CENTRAL AND EASTERN NORTH CAROLINA

CITY           SKY/WX    TMP DP  RH WIND       PRES   REMARKS
ROANOKE RAPIDS FAIR      61  54  77 CALM      30.40R
RALEIGH        PTCLDY    59  51  75 CALM      30.39R
ELIZABETH CITY CLEAR     59  51  75 E5        30.42S
AHOSKIE*       CLEAR     58  51  76 SE3       30.42R
EDENTON*       CLEAR     62  50  64 SE7       30.42S
CURRITUCK*     CLEAR     57  49  75 CALM      30.43S
KILL DEVIL HLS CLEAR     60  55  82 E5        30.41F
MANTEO         CLEAR     60  54  80 E5        30.42F
CAPE HATTERAS  CLEAR     60  56  86 NE6       30.42S
TARBORO*       FAIR      64  53  66 SE5       30.41S
GOLDSBORO      NOT AVBL
WASHINGTON     CLEAR     63  52  68 E3        30.42S
GREENVILLE     CLEAR     64  52  63 SE5       30.41S
NEW BERN       CLEAR     66  53  63 E6        30.42S
WILMINGTON     CLEAR     63  59  87 NE3       30.39R
$$

VAZ048-240400-
ELSEWHERE

CITY           SKY/WX    TMP DP  RH WIND       PRES   REMARKS
HARRISBURG PA  PTCLDY    60  44  55 VRB3      30.35S
BALTIMORE      CLEAR     55  43  63 CALM      30.38R
ANNAPOLIS      CLEAR     62  46  55 S7        30.39R
ANDREWS AFB    CLEAR     55  46  69 S9        30.38R
PHILADELPHIA   CLEAR     60  43  53 S10       30.39R
HENDERSON NC   CLEAR     62  50  65 CALM      30.39R
GREENSBORO     PTCLDY    66  47  50 S7        30.37R
ROCKY MOUNT    CLEAR     65  55  70 SE3       30.40R
$$

VAZ100-240400-
MARINE

STATION/POSITION TIME  TEMP    WIND        PRES    WAVE   SWELL
                       AIR SEA DIR/SP/G            HT/PER HT/PER
                 (UTC) (F)     (DEG/KT/KT) (MB)    (FT/S) (FT/S)
BRANDYWINE LGT   0200   58 63  200/ 17/ 19 1029.4R
CAPE MAY NJ      0200   57 67  170/  6/ 10 1029.3R
LEWES DE         0200   56 64  190/  7/ 10 1029.4R
15NM E FENWICK I 0250   58 59              1029.8R   2/ 9
OCEAN-CITY-INLET 0200   58 65  200/  7/ 10 1029.6R
WACHAPREAGUE VA  0200   60 70  170/  6/  9 1030.1R
THOMAS POINT MD  0300   65 65  190/ 15/ 16 1029.6R
GOOSES REEF MD   0300   63 65  210/ 10/ 12 1030.1R   1
SOLOMONS ISLAND  0200      68                N/A
BISHOPS HEAD MD  0200   64 68  180/ 11/ 12 1029.0R
PINEY POINT MD   0200          180/  9/ 10   N/A
CAMBRIDGE MD     0200   60 71  180/  3/  4 1029.0R
LEWISETTA VA     0200   62 69              1029.2R
RAPPAHANNOCK LGT 0200          140/ 10/ 11 1030.4R
STINGRAY PT      0300   63 69  160/ 14/ 16 1029.3R   1/ 2
YORK RVR RNG VA  0200   64     160/ 12/ 13 1029.2R
YORKTOWN VA      0200   62 71  150/  4/  7 1029.5R
JAMESTOWN VA     0300   64 74  170/ 12/ 14 1029.0R
DOMINION TERM VA 0200   64     140/ 10/ 11 1029.8R
KIPTOPEKE VA     0200      73  140/  7/  9   N/A
CHES BAY BRIDGE  0200   62 69  140/  9/ 12 1029.7R
CAPE HENRY VA    0200   59     160/  6/  7 1028.9R
CHESAPEAKE LGHT  0200   60     140/ 10/ 11 1030.9R
WILLOUBY STN VA  0200   62     150/ 10/ 11 1030.5R
CAPE HENRY BUOY  0228      62                N/A     2/ 5
1ST LANDING BUOY 0300      67              1029.8R
CAPE CHARLES BUO 0226      65                N/A     2/ 6   2/ 6
OFFSHORE WE BUOY 0211      60                N/A     2/ 6   2/ 6
64NM E OF VA BCH 0250   61 61  100/  6/  6 1030.2R   2/ 6   2/ 6
DUCK PIER NC     0200   61 64  100/ 10/ 11 1029.4R
44100 DUCK FRF   0224      61                N/A     2/ 5
44056 DUCK FRF   0211      63                N/A     2/ 5
OREGON INLET NC  0200   62 71   60/  7/  8 1030.4R
HATTERAS NC      0200   65 74   60/  6/ 10 1029.4R
DIAMOND SHLS NC  0250   71 78   50/  8/ 12 1029.7R   3/ 7   3/ 7
CAPE LOOKOUT NC  0300   70      60/ 11/ 12 1029.2S
$$



USA.gov is the U.S. government's official web portal to all federal, state and local government web resources and services.